[[[{"header":{"parameterUnit":"kt","parameterCategory":2,"dx":1,"dy":1,"la1":30.253999710083008,"la2":30.299108505249023,"lo1":-89.0895004272461,"lo2":-89.04439544677734,"nx":28,"ny":28,"refTime":"2022-10-29T21:00:00:Z","depth":0,"parameterNumber":1,"parameterNumberName":"U-component_of_WINDS"},"data":[3.7471,3.7646,3.7725,3.7961,3.8072,3.8247,3.8335,3.8457,3.8574,3.8793,3.8932,3.9031,3.918,3.9366,3.9522,3.9563,3.9622,3.9626,3.9673,3.9585,3.9578,3.9571,3.9534,3.9638,3.9638,3.9751,3.9752,3.9753,3.7396,3.7507,3.7656,3.7853,3.7981,3.8025,3.8186,3.829,3.8445,3.8592,3.8735,3.8934,3.9102,3.9254,3.9429,3.9513,3.9544,3.9555,3.9549,3.9571,3.9481,3.9441,3.9527,3.9527,3.9527,3.9527,3.9527,3.9527,3.728,3.7383,3.7548,3.7712,3.7833,3.7965,3.8076,3.8195,3.8342,3.8534,3.8602,3.878,3.8943,3.9195,3.9299,3.9441,3.9444,3.9481,3.949,3.9497,3.9492,3.9314,3.9475,3.9475,3.9475,3.9475,3.9475,0,3.722,3.7279,3.7428,3.76,3.7724,3.7865,3.8009,3.808,3.8235,3.835,3.8524,3.8638,3.8863,3.9035,3.9218,3.9322,3.9379,3.9395,3.9421,3.9388,3.9335,3.9363,3.9209,3.9389,3.9389,3.9389,3.9389,3.9388,3.7107,3.7219,3.7432,3.7525,3.7624,3.7774,3.788,3.8008,3.8115,3.8311,3.8396,3.8571,3.8718,3.8984,3.9123,3.9292,3.9322,3.9381,3.9348,3.9312,3.9321,3.9312,3.9323,3.9384,3.9385,3.9385,3.9385,0,3.7036,3.7166,3.7365,3.7567,3.7621,3.773,3.7903,3.8012,3.8116,3.828,3.8326,3.849,3.866,3.8791,3.9012,3.9075,3.9257,3.9283,3.92,3.9212,3.9276,3.9268,3.947,3.9502,3.9397,3.9398,3.9399,0,3.699,3.7132,3.7318,3.7427,3.7589,3.7715,3.7871,3.7977,3.812,3.8251,3.8338,3.8459,3.8608,3.8748,3.8842,3.9015,3.9057,3.9115,3.9138,3.9106,3.9099,3.9164,3.9158,3.9188,3.9187,3.9186,3.9185,0,3.6862,3.7131,3.7308,3.739,3.762,3.77,3.78,3.7962,3.8065,3.822,3.8289,3.8461,3.8555,3.8686,3.8804,3.8776,3.902,3.9006,3.9079,3.9076,3.9125,3.912,3.9267,3.9184,3.9184,3.9183,3.9183,0,3.6845,3.7,3.7238,3.7431,3.7496,3.7614,3.7791,3.7923,3.8087,3.8154,3.8278,3.8351,3.8515,3.8491,3.8718,3.8648,3.8735,3.8807,3.8815,3.8836,3.8805,3.8867,3.8996,3.9014,3.8856,3.8854,3.8851,0,3.6662,3.6939,3.7049,3.7274,3.7419,3.7507,3.764,3.7784,3.7884,3.8022,3.8134,3.8291,3.8301,3.8369,3.8464,3.8585,3.8677,3.8577,3.8774,3.8779,3.8724,3.8845,3.883,3.8954,3.8818,3.8822,3.8824,0,3.6537,3.6816,3.6848,3.6947,3.7158,3.7282,3.7435,3.7619,3.7704,3.7858,3.7989,3.8215,3.8231,3.8342,3.8422,3.8514,3.8619,3.8519,3.8526,3.8531,3.8814,3.8798,3.8819,3.8651,3.8655,3.8659,3.8798,0,3.6477,3.6634,3.6728,3.6944,3.706,3.7209,3.7348,3.7452,3.7516,3.7618,3.7815,3.797,3.8158,3.8217,3.8281,3.8451,3.8443,3.8459,3.8445,3.8524,3.8573,3.8593,3.836,3.836,3.8361,3.8361,0,0,3.6268,3.6495,3.6613,3.6767,3.6871,3.6961,3.7107,3.7221,3.7447,3.7517,3.7511,3.7851,3.7977,3.8201,3.8237,3.8314,3.8357,3.8324,3.8486,3.8499,3.8512,3.8562,3.8581,3.8361,3.8362,3.8362,3.8362,0,3.6275,3.6401,3.6545,3.6668,3.6853,3.6955,3.6989,3.7189,3.7262,3.7457,3.7528,3.7663,3.7933,3.8056,3.8154,3.8301,3.8347,3.8349,3.8379,3.8484,3.8497,3.8509,3.856,3.8577,3.8363,3.8363,3.8363,0,3.6175,3.6322,3.6406,3.6651,3.6774,3.6922,3.6941,3.7098,3.721,3.7301,3.7493,3.7598,3.7776,3.7971,3.8063,3.806,3.833,3.8271,3.8273,3.8286,3.8394,3.8409,3.8423,3.8244,3.8243,3.8242,0,0,3.6161,3.6308,3.6507,3.6663,3.6735,3.689,3.6983,3.7057,3.7214,3.7277,3.7413,3.7564,3.7723,3.7824,3.798,3.8174,3.8221,3.8251,3.8256,3.826,3.8275,3.8384,3.8399,3.8238,3.8238,3.8238,0,0,3.6155,3.6391,3.6428,3.6627,3.6774,3.698,3.707,3.712,3.7275,3.7273,3.7406,3.7452,3.7637,3.7738,3.7671,3.7977,3.796,3.7979,3.7904,3.7913,3.7919,3.789,3.7712,0,0,0,0,0,3.6234,3.6362,3.6392,3.6447,3.6757,3.6963,3.7003,3.7115,3.71,3.7169,3.729,3.7335,3.7729,3.7672,3.7724,3.7798,3.8189,3.8198,3.8206,3.8156,3.8164,3.817,0,0,0,0,0,0,3.6257,3.6322,3.6389,3.6599,3.667,3.6959,3.6958,3.6992,3.7096,3.7101,3.731,3.7341,3.7441,3.7653,3.7699,3.7766,3.7697,3.8193,3.82,3.8207,3.8158,3.8165,3.817,0,0,0,0,0,3.6275,3.6328,3.6797,3.6598,3.666,3.6839,3.6954,3.6983,3.7065,3.7254,3.7287,3.714,3.744,3.7486,3.7681,3.7742,3.7667,3.7683,3.8197,3.8203,3.8208,3.8162,0,0,0,0,0,0,3.6288,3.6356,3.6812,3.6835,3.6558,3.6825,3.687,3.6974,3.7214,3.7247,3.709,3.7091,3.7441,3.7476,3.7511,3.7728,3.7641,3.7658,3.7669,3.8202,3.8206,3.821,0,0,0,0,0,0,3.6328,3.6375,3.6823,3.6767,3.6785,3.6811,3.6852,3.7034,3.7215,3.7036,3.7045,3.7088,3.7389,3.747,3.7498,3.7778,3.7622,3.7638,3.765,3.7657,3.8206,3.8209,0,0,0,0,0,0,3.635,3.639,3.6762,3.6775,3.679,3.7056,3.6975,3.7287,3.7165,3.7024,3.7158,3.7154,3.7381,3.7411,3.7488,3.7756,3.7772,3.7623,3.7634,3.7642,3.7647,0,0,0,0,0,0,0,3.6367,3.6072,3.6675,3.6782,3.6795,3.7047,3.7053,3.7059,3.7165,3.7161,3.7158,3.7156,3.7531,3.7548,3.7566,3.7738,0,0,3.7621,3.7629,0,0,0,0,0,0,0,0,3.6058,3.6068,3.6676,3.6681,3.6685,3.7048,3.7053,3.7058,3.7164,3.7162,3.7159,3.7157,3.7535,3.755,3.7564,0,0,0,0,0,0,0,0,0,0,0,0,0,0,0,3.6676,3.668,0,3.7048,3.7053,3.7057,3.7164,3.7162,3.716,3.7158,3.7539,3.7551,3.7563,0,0,0,0,0,0,0,0,0,0,0,0,0,0,0,0,0,0,0,0,0,0,0,0,0,0,0,0,0,0,0,0,0,0,0,0,0,0,0,0,0,0,0,0,0,0,0,0,0,0,0,0,0,0,0,0,0,0,0,0,0,0,0,0,0,0,0,0,0]}],[{"header":{"parameterUnit":"kt","parameterCategory":2,"dx":1,"dy":1,"la1":30.253999710083008,"la2":30.299108505249023,"lo1":-89.0895004272461,"lo2":-89.04439544677734,"nx":28,"ny":28,"refTime":"2022-10-29T21:00:00:Z","depth":0,"parameterNumber":2,"parameterNumberName":"V-component_of_WINDS"},"data":[4.9585,4.9638,4.964,4.9701,4.9712,4.9753,4.9768,4.9787,4.9801,4.9849,4.9876,4.9881,4.9895,4.9926,4.9954,4.9955,4.9966,4.9984,4.9982,4.9902,4.9891,4.9881,4.9868,4.9987,4.9988,5.0064,5.0065,5.0066,4.9525,4.9537,4.957,4.9603,4.9631,4.9614,4.9638,4.9661,4.9698,4.9717,4.9744,4.9785,4.9817,4.9825,4.9855,4.9878,4.987,4.9886,4.9883,4.9885,4.98,4.9787,4.9891,4.9891,4.9891,4.9891,4.9891,4.9891,4.9415,4.9448,4.9468,4.9504,4.9521,4.9542,4.9573,4.9579,4.961,4.9644,4.9638,4.9679,4.9697,4.9733,4.9745,4.9775,4.9758,4.9774,4.9778,4.9782,4.9786,4.9672,4.9781,4.978,4.978,4.978,4.978,0,4.9335,4.9334,4.9366,4.9399,4.9425,4.9449,4.9472,4.9491,4.9487,4.9513,4.955,4.9571,4.9611,4.9645,4.9673,4.9682,4.9664,4.9663,4.9674,4.9677,4.9675,4.9675,4.9535,4.966,4.9659,4.9658,4.9657,4.9657,4.9223,4.9261,4.9284,4.9306,4.9319,4.9355,4.9376,4.937,4.9392,4.9418,4.9446,4.948,4.9507,4.9565,4.9569,4.9599,4.9591,4.9638,4.9595,4.9596,4.9589,4.9586,4.9589,4.9646,4.9647,4.9649,4.965,0,4.9159,4.9161,4.9221,4.9239,4.9245,4.9284,4.9299,4.933,4.9333,4.9376,4.9385,4.9389,4.9424,4.9421,4.9461,4.9458,4.952,4.9512,4.9513,4.9511,4.9552,4.9547,4.9689,4.9706,4.9584,4.9585,4.9586,0,4.9063,4.9114,4.9114,4.9148,4.9203,4.9196,4.9251,4.9258,4.9275,4.9308,4.929,4.9322,4.9314,4.9345,4.9341,4.9391,4.9399,4.9399,4.9397,4.9399,4.9399,4.9409,4.9403,4.9393,4.9392,4.9392,4.9391,0,4.8962,4.9022,4.9078,4.9092,4.9116,4.9142,4.9153,4.9171,4.9192,4.9218,4.9231,4.9262,4.9278,4.9301,4.9296,4.9266,4.9358,4.9316,4.9357,4.9357,4.9376,4.9375,4.9502,4.939,4.939,4.939,4.9389,0,4.8884,4.8913,4.8996,4.9014,4.903,4.9067,4.9098,4.9129,4.9149,4.915,4.917,4.9157,4.9202,4.916,4.9221,4.9184,4.9201,4.9206,4.9209,4.9211,4.9164,4.9234,4.9358,4.9369,4.9215,4.9213,4.9212,0,4.8766,4.8851,4.8845,4.8923,4.8962,4.8938,4.8979,4.8998,4.9002,4.9033,4.9037,4.9073,4.9042,4.9052,4.9083,4.9087,4.9136,4.9081,4.9123,4.9124,4.9117,4.9231,4.9249,4.9331,4.9193,4.9195,4.9197,0,4.8675,4.8706,4.872,4.8735,4.8761,4.8793,4.884,4.8875,4.8896,4.892,4.8958,4.9009,4.8987,4.9005,4.8997,4.903,4.9103,4.9001,4.9001,4.9018,4.9184,4.9201,4.9215,4.909,4.9092,4.9094,4.9182,0,4.8554,4.8597,4.8637,4.8671,4.8696,4.8746,4.8744,4.877,4.8761,4.8763,4.882,4.8835,4.8869,4.8885,4.8876,4.8952,4.8938,4.8914,4.8872,4.8948,4.8976,4.8988,4.8829,4.8828,4.8827,4.8826,0,0,4.844,4.8501,4.8495,4.8541,4.8561,4.8537,4.8589,4.8606,4.864,4.8653,4.863,4.8705,4.8718,4.8786,4.8809,4.8824,4.8836,4.881,4.8912,4.8922,4.8931,4.8961,4.8974,4.8824,4.8824,4.8824,4.8823,0,4.8395,4.8412,4.8466,4.8483,4.8508,4.8509,4.8522,4.8542,4.8547,4.8603,4.858,4.8614,4.8674,4.869,4.8706,4.8803,4.8782,4.8813,4.8865,4.8902,4.8913,4.8922,4.8955,4.8967,4.8821,4.8821,4.8821,0,4.8303,4.832,4.8346,4.8393,4.8409,4.8449,4.8405,4.845,4.8479,4.8448,4.8504,4.8512,4.8534,4.86,4.863,4.8609,4.8733,4.8694,4.8701,4.8704,4.8738,4.8752,4.8764,4.8608,4.8607,4.8607,0,0,4.8265,4.8305,4.832,4.8383,4.8395,4.8397,4.8419,4.8412,4.8433,4.8442,4.8452,4.8472,4.8507,4.853,4.8562,4.8635,4.8638,4.8668,4.8678,4.8687,4.8694,4.8731,4.8744,4.8604,4.8604,4.8604,0,0,4.8246,4.8266,4.8253,4.8326,4.8348,4.8366,4.8403,4.8388,4.8417,4.8411,4.84,4.8405,4.8466,4.8475,4.8439,4.8546,4.8505,4.8514,4.8539,4.8551,4.8561,4.8557,4.8394,0,0,0,0,0,4.8199,4.8263,4.8252,4.8264,4.8323,4.8373,4.838,4.8373,4.8344,4.8374,4.8379,4.8357,4.8453,4.842,4.8431,4.8472,4.8568,4.8575,4.858,4.8629,4.8642,4.8654,0,0,0,0,0,0,4.8204,4.8219,4.825,4.8271,4.8284,4.837,4.8319,4.8319,4.834,4.8336,4.8357,4.8357,4.8352,4.8414,4.8424,4.8463,4.8391,4.8571,4.8576,4.8581,4.8634,4.8645,4.8654,0,0,0,0,0,4.8208,4.822,4.8316,4.827,4.8281,4.8287,4.8317,4.8316,4.8332,4.8342,4.8342,4.8325,4.8353,4.8361,4.842,4.8458,4.8384,4.8388,4.8574,4.8578,4.8582,4.8639,0,0,0,0,0,0,4.8211,4.8219,4.8318,4.8322,4.8245,4.8282,4.8288,4.8314,4.8337,4.8338,4.831,4.8305,4.8355,4.8361,4.8367,4.8457,4.8378,4.8382,4.8384,4.8577,4.8581,4.8584,0,0,0,0,0,0,4.8212,4.8222,4.832,4.829,4.8289,4.8278,4.8283,4.8332,4.8337,4.8303,4.8301,4.8307,4.8344,4.8361,4.8365,4.8442,4.8373,4.8377,4.838,4.8381,4.858,4.8583,0,0,0,0,0,0,4.8216,4.8224,4.8289,4.8289,4.8288,4.8322,4.832,4.8381,4.8313,4.8303,4.8307,4.8304,4.8345,4.835,4.8365,4.8439,4.8441,4.8373,4.8376,4.8378,4.8379,0,0,0,0,0,0,0,4.8219,4.8167,4.83,4.8288,4.8287,4.8351,4.8351,4.8352,4.8312,4.831,4.8307,4.8305,4.8352,4.8356,4.836,4.8437,0,0,4.8373,4.8375,0,0,0,0,0,0,0,0,4.8164,4.8166,4.83,4.8301,4.8302,4.8351,4.8351,4.8352,4.8312,4.831,4.8308,4.8306,4.8353,4.8356,4.836,0,0,0,0,0,0,0,0,0,0,0,0,0,0,0,4.83,4.8301,0,4.8351,4.8351,4.8352,4.8312,4.831,4.8308,4.8307,4.8354,4.8357,4.8359,0,0,0,0,0,0,0,0,0,0,0,0,0,0,0,0,0,0,0,0,0,0,0,0,0,0,0,0,0,0,0,0,0,0,0,0,0,0,0,0,0,0,0,0,0,0,0,0,0,0,0,0,0,0,0,0,0,0,0,0,0,0,0,0,0,0,0,0,0]}]]]